date,time,SUV Intensity [MED/Hr],UV Index,Daily total [MED],Since Last [MED]
22/06/2022,00:09:31,0.000,0.0,0.0,0.0
22/06/2022,00:10:32,0.000,0.0,0.0,0.0
22/06/2022,00:11:31,0.000,0.0,0.0,0.0
22/06/2022,00:12:32,0.000,0.0,0.0,0.0
22/06/2022,00:13:31,0.000,0.0,0.0,0.0
22/06/2022,00:14:40,0.000,0.0,0.0,0.0
22/06/2022,00:15:31,0.000,0.0,0.0,0.0
22/06/2022,00:16:31,0.000,0.0,0.0,0.0
22/06/2022,00:17:32,0.000,0.0,0.0,0.0
22/06/2022,00:18:32,0.000,0.0,0.0,0.0
22/06/2022,00:19:31,0.000,0.0,0.0,0.0
22/06/2022,00:20:32,0.000,0.0,0.0,0.0
22/06/2022,00:21:31,0.000,0.0,0.0,0.0
22/06/2022,00:22:32,0.000,0.0,0.0,0.0
22/06/2022,00:23:32,0.000,0.0,0.0,0.0
22/06/2022,00:24:31,0.000,0.0,0.0,0.0
22/06/2022,00:25:32,0.000,0.0,0.0,0.0
22/06/2022,00:26:31,0.000,0.0,0.0,0.0
22/06/2022,00:27:32,0.000,0.0,0.0,0.0
22/06/2022,00:28:31,0.001,0.0,0.0,0.0
22/06/2022,00:29:32,0.000,0.0,0.0,0.0
22/06/2022,00:30:31,0.000,0.0,0.0,0.0
22/06/2022,00:31:32,0.000,0.0,0.0,0.0
22/06/2022,00:32:31,0.000,0.0,0.0,0.0
22/06/2022,00:33:31,0.000,0.0,0.0,0.0
22/06/2022,00:34:31,0.000,0.0,0.0,0.0
22/06/2022,00:35:32,0.000,0.0,0.0,0.0
22/06/2022,00:36:39,0.000,0.0,0.0,0.0
22/06/2022,00:37:31,0.000,0.0,0.0,0.0
22/06/2022,00:38:31,0.000,0.0,0.0,0.0
22/06/2022,00:39:31,0.000,0.0,0.0,0.0
22/06/2022,00:40:32,0.000,0.0,0.0,0.0
22/06/2022,00:41:32,0.000,0.0,0.0,0.0
22/06/2022,00:42:40,0.000,0.0,0.0,0.0
22/06/2022,00:43:32,0.000,0.0,0.0,0.0
22/06/2022,00:44:31,0.000,0.0,0.0,0.0
22/06/2022,00:45:32,0.000,0.0,0.0,0.0
22/06/2022,00:46:31,0.000,0.0,0.0,0.0
22/06/2022,00:47:32,0.000,0.0,0.0,0.0
22/06/2022,00:48:32,0.000,0.0,0.0,0.0
22/06/2022,00:49:31,0.000,0.0,0.0,0.0
22/06/2022,00:50:31,0.000,0.0,0.0,0.0
22/06/2022,00:51:32,0.000,0.0,0.0,0.0
22/06/2022,00:52:31,0.000,0.0,0.0,0.0
22/06/2022,00:53:32,0.000,0.0,0.0,0.0
22/06/2022,00:54:32,0.000,0.0,0.0,0.0
22/06/2022,00:55:32,0.001,0.0,0.0,0.0
22/06/2022,00:56:32,0.000,0.0,0.0,0.0
22/06/2022,00:57:40,0.000,0.0,0.0,0.0
22/06/2022,00:58:32,0.000,0.0,0.0,0.0
22/06/2022,00:59:31,0.000,0.0,0.0,0.0
22/06/2022,01:00:32,0.000,0.0,0.0,0.0
22/06/2022,01:01:32,0.000,0.0,0.0,0.0
22/06/2022,01:02:39,0.000,0.0,0.0,0.0
22/06/2022,01:03:32,0.000,0.0,0.0,0.0
22/06/2022,01:04:32,0.000,0.0,0.0,0.0
22/06/2022,01:05:32,0.000,0.0,0.0,0.0
22/06/2022,01:06:31,0.001,0.0,0.0,0.0
22/06/2022,01:07:31,0.000,0.0,0.0,0.0
22/06/2022,01:08:31,0.000,0.0,0.0,0.0
22/06/2022,01:09:32,0.001,0.0,0.0,0.0
22/06/2022,01:10:31,0.001,0.0,0.0,0.0
22/06/2022,01:11:32,0.001,0.0,0.0,0.0
22/06/2022,01:12:31,0.001,0.0,0.0,0.0
22/06/2022,01:13:31,0.001,0.0,0.0,0.0
22/06/2022,01:14:32,0.000,0.0,0.0,0.0
22/06/2022,01:15:31,0.000,0.0,0.0,0.0
22/06/2022,01:16:31,0.001,0.0,0.0,0.0
22/06/2022,01:17:32,0.002,0.0,0.0,0.0
22/06/2022,01:18:31,0.001,0.0,0.0,0.0
22/06/2022,01:19:42,0.001,0.0,0.0,0.0
22/06/2022,01:20:31,0.001,0.0,0.0,0.0
22/06/2022,01:21:40,0.001,0.0,0.0,0.0
22/06/2022,01:22:31,0.001,0.0,0.0,0.0
22/06/2022,01:23:32,0.001,0.0,0.0,0.0
22/06/2022,01:24:31,0.000,0.0,0.0,0.0
22/06/2022,01:25:31,0.001,0.0,0.0,0.0
22/06/2022,01:26:32,0.001,0.0,0.0,0.0
22/06/2022,01:27:32,0.001,0.0,0.0,0.0
22/06/2022,01:28:32,0.002,0.0,0.0,0.0
22/06/2022,01:29:34,0.001,0.0,0.0,0.0
22/06/2022,01:30:31,0.000,0.0,0.0,0.0
22/06/2022,01:31:31,0.002,0.0,0.0,0.0
22/06/2022,01:32:31,0.002,0.0,0.0,0.0
22/06/2022,01:33:31,0.001,0.0,0.0,0.0
22/06/2022,01:34:32,0.001,0.0,0.0,0.0
22/06/2022,01:35:32,0.001,0.0,0.0,0.0
22/06/2022,01:36:40,0.002,0.0,0.0,0.0
22/06/2022,01:37:31,0.001,0.0,0.0,0.0
22/06/2022,01:38:32,0.002,0.0,0.0,0.0
22/06/2022,01:39:40,0.001,0.0,0.0,0.0
22/06/2022,01:40:32,0.001,0.0,0.0,0.0
22/06/2022,01:41:31,0.002,0.0,0.0,0.0
22/06/2022,01:42:32,0.002,0.0,0.0,0.0
22/06/2022,01:43:32,0.002,0.0,0.0,0.0
22/06/2022,01:44:31,0.002,0.0,0.0,0.0
22/06/2022,01:45:32,0.001,0.0,0.0,0.0
22/06/2022,01:46:33,0.003,0.0,0.0,0.0
22/06/2022,01:47:32,0.002,0.0,0.0,0.0
22/06/2022,01:48:31,0.002,0.0,0.0,0.0
22/06/2022,01:49:31,0.002,0.0,0.0,0.0
22/06/2022,01:50:32,0.001,0.0,0.0,0.0
22/06/2022,01:51:31,0.002,0.0,0.0,0.0
22/06/2022,01:52:32,0.001,0.0,0.0,0.0
22/06/2022,01:53:32,0.002,0.0,0.0,0.0
22/06/2022,01:54:31,0.002,0.0,0.0,0.0
22/06/2022,01:55:31,0.002,0.0,0.0,0.0
22/06/2022,01:56:32,0.001,0.0,0.0,0.0
22/06/2022,01:57:40,0.001,0.0,0.0,0.0
22/06/2022,01:58:31,0.002,0.0,0.0,0.0
22/06/2022,01:59:32,0.002,0.0,0.0,0.0
22/06/2022,02:00:40,0.002,0.0,0.0,0.0
22/06/2022,02:01:32,0.001,0.0,0.0,0.0
22/06/2022,02:02:32,0.001,0.0,0.0,0.0
22/06/2022,02:03:32,0.001,0.0,0.0,0.0
22/06/2022,02:04:32,0.002,0.0,0.0,0.0
22/06/2022,02:05:32,0.002,0.0,0.0,0.0
22/06/2022,02:06:31,0.002,0.0,0.0,0.0
22/06/2022,02:07:31,0.002,0.0,0.0,0.0
22/06/2022,02:08:32,0.002,0.0,0.0,0.0
22/06/2022,02:09:32,0.002,0.0,0.0,0.0
22/06/2022,02:10:31,0.001,0.0,0.0,0.0
22/06/2022,02:11:32,0.002,0.0,0.0,0.0
22/06/2022,02:12:31,0.002,0.0,0.0,0.0
22/06/2022,02:13:32,0.003,0.0,0.0,0.0
22/06/2022,02:14:31,0.002,0.0,0.0,0.0
22/06/2022,02:15:32,0.002,0.0,0.0,0.0
22/06/2022,02:16:32,0.002,0.0,0.0,0.0
22/06/2022,02:17:31,0.002,0.0,0.0,0.0
22/06/2022,02:18:47,0.003,0.0,0.0,0.0
22/06/2022,02:20:34,0.001,0.0,0.0,0.0
22/06/2022,02:21:32,0.002,0.0,0.0,0.0
22/06/2022,02:22:32,0.003,0.0,0.0,0.0
22/06/2022,02:23:31,0.003,0.0,0.0,0.0
22/06/2022,02:24:32,0.002,0.0,0.0,0.0
22/06/2022,02:25:32,0.002,0.0,0.0,0.0
22/06/2022,02:26:32,0.002,0.0,0.0,0.0
22/06/2022,02:27:31,0.002,0.0,0.0,0.0
22/06/2022,02:28:32,0.001,0.0,0.0,0.0
22/06/2022,02:29:31,0.003,0.0,0.0,0.0
22/06/2022,02:30:31,0.003,0.0,0.0,0.0
22/06/2022,02:31:31,0.002,0.0,0.0,0.0
22/06/2022,02:32:31,0.002,0.0,0.0,0.0
22/06/2022,02:33:40,0.002,0.0,0.0,0.0
22/06/2022,02:34:23,0.002,0.0,0.0,0.0
22/06/2022,02:35:32,0.002,0.0,0.0,0.0
22/06/2022,02:36:40,0.003,0.0,0.0,0.0
22/06/2022,02:38:33,0.002,0.0,0.0,0.0
22/06/2022,02:39:32,0.001,0.0,0.0,0.0
22/06/2022,02:40:32,0.002,0.0,0.0,0.0
22/06/2022,02:41:31,0.002,0.0,0.0,0.0
22/06/2022,02:42:32,0.002,0.0,0.0,0.0
22/06/2022,02:43:32,0.002,0.0,0.0,0.0
22/06/2022,02:44:40,0.002,0.0,0.0,0.0
22/06/2022,02:45:32,0.003,0.0,0.0,0.0
22/06/2022,02:46:31,0.002,0.0,0.0,0.0
22/06/2022,02:47:32,0.002,0.0,0.0,0.0
22/06/2022,02:48:32,0.002,0.0,0.0,0.0
22/06/2022,02:49:32,0.002,0.0,0.0,0.0
22/06/2022,02:50:32,0.002,0.0,0.0,0.0
22/06/2022,02:51:32,0.001,0.0,0.0,0.0
22/06/2022,02:52:31,0.002,0.0,0.0,0.0
22/06/2022,02:53:32,0.003,0.0,0.0,0.0
22/06/2022,02:54:40,0.002,0.0,0.0,0.0
22/06/2022,02:55:32,0.001,0.0,0.0,0.0
22/06/2022,02:56:32,0.002,0.0,0.0,0.0
22/06/2022,02:57:32,0.003,0.0,0.0,0.0
22/06/2022,02:58:32,0.001,0.0,0.0,0.0
22/06/2022,02:59:32,0.002,0.0,0.0,0.0
22/06/2022,03:00:32,0.002,0.0,0.0,0.0
22/06/2022,03:01:32,0.001,0.0,0.0,0.0
22/06/2022,03:02:32,0.002,0.0,0.0,0.0
22/06/2022,03:03:32,0.002,0.0,0.0,0.0
22/06/2022,03:04:31,0.002,0.0,0.0,0.0
22/06/2022,03:05:31,0.001,0.0,0.0,0.0
22/06/2022,03:06:32,0.002,0.0,0.0,0.0
22/06/2022,03:07:32,0.002,0.0,0.0,0.0
22/06/2022,03:08:31,0.002,0.0,0.0,0.0
22/06/2022,03:09:40,0.002,0.0,0.0,0.0
22/06/2022,03:10:32,0.002,0.0,0.0,0.0
22/06/2022,03:11:32,0.002,0.0,0.0,0.0
22/06/2022,03:12:32,0.002,0.0,0.0,0.0
22/06/2022,03:13:32,0.002,0.0,0.0,0.0
22/06/2022,03:14:32,0.002,0.0,0.0,0.0
22/06/2022,03:15:32,0.002,0.0,0.0,0.0
22/06/2022,03:16:32,0.002,0.0,0.0,0.0
22/06/2022,03:17:32,0.002,0.0,0.0,0.0
22/06/2022,03:18:32,0.002,0.0,0.0,0.0
22/06/2022,03:19:31,0.001,0.0,0.0,0.0
22/06/2022,03:20:32,0.003,0.0,0.0,0.0
22/06/2022,03:21:32,0.002,0.0,0.0,0.0
22/06/2022,03:22:32,0.002,0.0,0.0,0.0
22/06/2022,03:23:32,0.002,0.0,0.0,0.0
22/06/2022,03:24:32,0.002,0.0,0.0,0.0
22/06/2022,03:25:32,0.002,0.0,0.0,0.0
22/06/2022,03:26:32,0.002,0.0,0.0,0.0
22/06/2022,03:27:32,0.002,0.0,0.0,0.0
22/06/2022,03:28:32,0.001,0.0,0.0,0.0
22/06/2022,03:29:32,0.002,0.0,0.0,0.0
22/06/2022,03:30:41,0.002,0.0,0.0,0.0
22/06/2022,03:31:32,0.002,0.0,0.0,0.0
22/06/2022,03:32:31,0.003,0.0,0.0,0.0
22/06/2022,03:33:32,0.002,0.0,0.0,0.0
22/06/2022,03:34:32,0.002,0.0,0.0,0.0
22/06/2022,03:35:32,0.003,0.0,0.0,0.0
22/06/2022,03:36:32,0.001,0.0,0.0,0.0
22/06/2022,03:37:32,0.001,0.0,0.0,0.0
22/06/2022,03:38:31,0.002,0.0,0.0,0.0
22/06/2022,03:39:31,0.003,0.0,0.0,0.0
22/06/2022,03:40:32,0.002,0.0,0.0,0.0
22/06/2022,03:41:32,0.003,0.0,0.0,0.0
22/06/2022,03:42:31,0.003,0.0,0.0,0.0
22/06/2022,03:43:32,0.003,0.0,0.0,0.0
22/06/2022,03:44:32,0.003,0.0,0.0,0.0
22/06/2022,03:45:32,0.003,0.0,0.0,0.0
22/06/2022,03:46:32,0.004,0.0,0.0,0.0
22/06/2022,03:47:32,0.004,0.0,0.0,0.0
22/06/2022,03:48:32,0.003,0.0,0.0,0.0
22/06/2022,03:49:32,0.004,0.0,0.0,0.0
22/06/2022,03:50:32,0.003,0.0,0.0,0.0
22/06/2022,03:51:40,0.004,0.0,0.0,0.0
22/06/2022,03:52:32,0.003,0.0,0.0,0.0
22/06/2022,03:53:32,0.004,0.0,0.0,0.0
22/06/2022,03:54:31,0.004,0.0,0.0,0.0
22/06/2022,03:55:32,0.004,0.0,0.0,0.0
22/06/2022,03:56:32,0.004,0.0,0.0,0.0
22/06/2022,03:57:32,0.004,0.0,0.0,0.0
22/06/2022,03:58:32,0.005,0.0,0.0,0.0
22/06/2022,03:59:32,0.005,0.0,0.0,0.0
22/06/2022,04:00:32,0.005,0.0,0.0,0.0
22/06/2022,04:01:32,0.005,0.0,0.0,0.0
22/06/2022,04:02:32,0.005,0.0,0.0,0.0
22/06/2022,04:03:32,0.004,0.0,0.0,0.0
22/06/2022,04:04:31,0.004,0.0,0.0,0.0
22/06/2022,04:05:32,0.006,0.0,0.0,0.0
22/06/2022,04:06:40,0.006,0.0,0.0,0.0
22/06/2022,04:07:32,0.006,0.0,0.0,0.0
22/06/2022,04:08:32,0.007,0.0,0.0,0.0
22/06/2022,04:09:40,0.006,0.0,0.0,0.0
22/06/2022,04:10:32,0.006,0.0,0.0,0.0
22/06/2022,04:11:32,0.007,0.0,0.0,0.0
22/06/2022,04:12:40,0.008,0.0,0.001,0.001
22/06/2022,04:13:32,0.006,0.0,0.001,0.0
22/06/2022,04:14:32,0.008,0.0,0.001,0.0
22/06/2022,04:15:40,0.008,0.0,0.001,0.0
22/06/2022,04:16:32,0.008,0.0,0.001,0.0
22/06/2022,04:17:32,0.008,0.0,0.001,0.0
22/06/2022,04:18:31,0.009,0.0,0.001,0.0
22/06/2022,04:19:32,0.009,0.0,0.002,0.001
22/06/2022,04:20:32,0.009,0.0,0.002,0.0
22/06/2022,04:21:41,0.010,0.0,0.002,0.0
22/06/2022,04:22:32,0.011,0.0,0.002,0.0
22/06/2022,04:23:32,0.009,0.0,0.002,0.0
22/06/2022,04:24:32,0.010,0.0,0.002,0.0
22/06/2022,04:25:32,0.011,0.0,0.002,0.0
22/06/2022,04:26:32,0.012,0.0,0.003,0.001
22/06/2022,04:27:32,0.011,0.0,0.003,0.0
22/06/2022,04:28:32,0.011,0.0,0.003,0.0
22/06/2022,04:29:32,0.012,0.0,0.003,0.0
22/06/2022,04:30:32,0.013,0.0,0.003,0.0
22/06/2022,04:31:32,0.013,0.0,0.004,0.001
22/06/2022,04:32:32,0.013,0.0,0.004,0.0
22/06/2022,04:33:32,0.014,0.0,0.004,0.0
22/06/2022,04:34:32,0.014,0.0,0.004,0.0
22/06/2022,04:35:31,0.014,0.0,0.005,0.001
22/06/2022,04:36:42,0.015,0.0,0.005,0.0
22/06/2022,04:37:32,0.016,0.0,0.005,0.0
22/06/2022,04:38:32,0.016,0.0,0.005,0.0
22/06/2022,04:39:32,0.016,0.0,0.006,0.001
22/06/2022,04:40:32,0.017,0.0,0.006,0.0
22/06/2022,04:41:32,0.017,0.0,0.006,0.0
22/06/2022,04:42:40,0.018,0.0,0.007,0.001
22/06/2022,04:44:33,0.018,0.0,0.007,0.0
22/06/2022,04:45:32,0.019,0.0,0.007,0.0
22/06/2022,04:46:32,0.020,0.0,0.008,0.001
22/06/2022,04:47:32,0.021,0.0,0.008,0.0
22/06/2022,04:48:41,0.021,0.0,0.008,0.0
22/06/2022,04:49:32,0.022,0.0,0.009,0.001
22/06/2022,04:50:32,0.023,0.0,0.009,0.0
22/06/2022,04:51:32,0.023,0.0,0.01,0.001
22/06/2022,04:52:32,0.024,0.0,0.01,0.0
22/06/2022,04:53:32,0.023,0.0,0.01,0.0
22/06/2022,04:54:32,0.025,0.0,0.011,0.001
22/06/2022,04:55:32,0.026,0.0,0.011,0.0
22/06/2022,04:56:32,0.026,0.0,0.012,0.001
22/06/2022,04:57:40,0.028,0.0,0.012,0.0
22/06/2022,04:58:32,0.027,0.0,0.013,0.001
22/06/2022,04:59:32,0.028,0.0,0.013,0.0
22/06/2022,05:00:32,0.029,0.0,0.013,0.0
22/06/2022,05:01:32,0.030,0.0,0.014,0.001
22/06/2022,05:02:32,0.031,0.0,0.014,0.0
22/06/2022,05:03:32,0.032,0.0,0.015,0.001
22/06/2022,05:04:33,0.032,0.0,0.016,0.001
22/06/2022,05:05:32,0.033,0.0,0.016,0.0
22/06/2022,05:06:41,0.035,0.0,0.017,0.001
22/06/2022,05:07:32,0.037,0.0,0.017,0.0
22/06/2022,05:08:32,0.037,0.0,0.018,0.001
22/06/2022,05:09:32,0.037,0.0,0.018,0.0
22/06/2022,05:10:40,0.038,0.0,0.019,0.001
22/06/2022,05:11:32,0.038,0.0,0.02,0.001
22/06/2022,05:12:31,0.040,0.0,0.02,0.0
22/06/2022,05:13:32,0.041,0.0,0.021,0.001
22/06/2022,05:14:32,0.042,0.0,0.022,0.001
22/06/2022,05:15:32,0.042,0.0,0.022,0.0
22/06/2022,05:16:32,0.044,0.0,0.023,0.001
22/06/2022,05:17:32,0.045,0.0,0.024,0.001
22/06/2022,05:18:40,0.046,0.0,0.025,0.001
22/06/2022,05:19:32,0.046,0.0,0.025,0.0
22/06/2022,05:20:32,0.048,0.0,0.026,0.001
22/06/2022,05:21:33,0.050,0.0,0.027,0.001
22/06/2022,05:22:32,0.050,0.0,0.028,0.001
22/06/2022,05:23:32,0.051,0.0,0.029,0.001
22/06/2022,05:24:32,0.053,0.0,0.03,0.001
22/06/2022,05:25:32,0.053,0.0,0.03,0.0
22/06/2022,05:26:32,0.055,0.0,0.031,0.001
22/06/2022,05:27:32,0.056,0.0,0.032,0.001
22/06/2022,05:28:32,0.057,0.0,0.033,0.001
22/06/2022,05:29:32,0.059,0.0,0.034,0.001
22/06/2022,05:30:32,0.059,0.0,0.035,0.001
22/06/2022,05:31:32,0.062,0.0,0.036,0.001
22/06/2022,05:32:32,0.062,0.0,0.037,0.001
22/06/2022,05:33:32,0.064,0.0,0.038,0.001
22/06/2022,05:34:41,0.065,0.0,0.04,0.002
22/06/2022,05:35:32,0.066,0.0,0.04,0.0
22/06/2022,05:36:32,0.068,0.0,0.042,0.002
22/06/2022,05:37:32,0.071,0.0,0.043,0.001
22/06/2022,05:38:32,0.071,0.0,0.044,0.001
22/06/2022,05:39:32,0.073,0.0,0.045,0.001
22/06/2022,05:40:32,0.074,0.0,0.046,0.001
22/06/2022,05:41:32,0.076,0.0,0.048,0.002
22/06/2022,05:42:33,0.079,0.0,0.049,0.001
22/06/2022,05:43:32,0.079,0.0,0.05,0.001
22/06/2022,05:44:40,0.081,0.0,0.052,0.002
22/06/2022,05:45:33,0.082,0.0,0.053,0.001
22/06/2022,05:46:32,0.084,0.0,0.054,0.001
22/06/2022,05:47:32,0.087,0.0,0.056,0.002
22/06/2022,05:48:32,0.088,0.0,0.057,0.001
22/06/2022,05:49:32,0.090,0.0,0.059,0.002
22/06/2022,05:50:32,0.091,0.0,0.06,0.001
22/06/2022,05:51:32,0.092,0.0,0.062,0.002
22/06/2022,05:52:32,0.095,0.0,0.063,0.001
22/06/2022,05:53:32,0.097,0.0,0.065,0.002
22/06/2022,05:54:32,0.099,0.0,0.066,0.001
22/06/2022,05:55:40,0.101,0.0,0.068,0.002
22/06/2022,05:56:32,0.102,0.0,0.07,0.002
22/06/2022,05:57:32,0.105,0.0,0.072,0.002
22/06/2022,05:58:32,0.107,0.0,0.073,0.001
22/06/2022,05:59:32,0.110,0.0,0.075,0.002
22/06/2022,06:00:32,0.111,0.0,0.077,0.002
22/06/2022,06:01:32,0.114,0.0,0.079,0.002
22/06/2022,06:02:32,0.117,0.0,0.081,0.002
22/06/2022,06:03:33,0.118,0.0,0.083,0.002
22/06/2022,06:04:32,0.120,0.0,0.085,0.002
22/06/2022,06:05:32,0.122,0.0,0.087,0.002
22/06/2022,06:06:32,0.125,0.0,0.089,0.002
22/06/2022,06:07:32,0.127,0.0,0.091,0.002
22/06/2022,06:08:32,0.129,0.0,0.093,0.002
22/06/2022,06:09:32,0.132,0.0,0.095,0.002
22/06/2022,06:10:32,0.134,0.0,0.097,0.002
22/06/2022,06:11:32,0.137,0.0,0.1,0.003
22/06/2022,06:12:41,0.140,0.0,0.102,0.002
22/06/2022,06:13:33,0.141,0.0,0.104,0.002
22/06/2022,06:14:32,0.145,0.0,0.107,0.003
22/06/2022,06:15:32,0.146,0.0,0.109,0.002
22/06/2022,06:16:40,0.150,0.0,0.112,0.003
22/06/2022,06:18:33,0.155,0.0,0.117,0.005
22/06/2022,06:19:32,0.158,0.0,0.119,0.002
22/06/2022,06:20:32,0.161,0.0,0.122,0.003
22/06/2022,06:21:32,0.164,0.0,0.125,0.003
22/06/2022,06:22:32,0.168,0.0,0.127,0.002
22/06/2022,06:23:33,0.170,0.0,0.13,0.003
22/06/2022,06:24:32,0.173,0.0,0.133,0.003
22/06/2022,06:25:32,0.176,0.0,0.136,0.003
22/06/2022,06:26:32,0.179,0.0,0.139,0.003
22/06/2022,06:27:32,0.182,0.0,0.142,0.003
22/06/2022,06:28:32,0.185,0.0,0.145,0.003
22/06/2022,06:29:40,0.189,0.0,0.149,0.004
22/06/2022,06:30:44,0.192,0.0,0.152,0.003
22/06/2022,06:32:33,0.197,0.0,0.158,0.006
22/06/2022,06:33:32,0.202,0.0,0.161,0.003
22/06/2022,06:34:32,0.205,0.0,0.165,0.004
22/06/2022,06:35:32,0.208,0.0,0.168,0.003
22/06/2022,06:36:32,0.212,0.0,0.171,0.003
22/06/2022,06:37:32,0.215,0.0,0.175,0.004
22/06/2022,06:38:33,0.219,1.0,0.179,0.004
22/06/2022,06:39:33,0.222,1.0,0.182,0.003
22/06/2022,06:40:32,0.226,1.0,0.186,0.004
22/06/2022,06:41:32,0.230,1.0,0.19,0.004
22/06/2022,06:42:32,0.233,1.0,0.194,0.004
22/06/2022,06:43:32,0.237,1.0,0.198,0.004
22/06/2022,06:44:41,0.241,1.0,0.202,0.004
22/06/2022,06:45:32,0.245,1.0,0.206,0.004
22/06/2022,06:46:32,0.248,1.0,0.21,0.004
22/06/2022,06:47:32,0.252,1.0,0.214,0.004
22/06/2022,06:48:33,0.256,1.0,0.218,0.004
22/06/2022,06:49:32,0.260,1.0,0.222,0.004
22/06/2022,06:50:40,0.264,1.0,0.227,0.005
22/06/2022,06:51:32,0.268,1.0,0.231,0.004
22/06/2022,06:52:32,0.272,1.0,0.236,0.005
22/06/2022,06:53:40,0.275,1.0,0.241,0.005
22/06/2022,06:54:32,0.279,1.0,0.245,0.004
22/06/2022,06:55:32,0.282,1.0,0.25,0.005
22/06/2022,06:56:32,0.288,1.0,0.254,0.004
22/06/2022,06:57:33,0.292,1.0,0.259,0.005
22/06/2022,06:58:32,0.298,1.0,0.264,0.005
22/06/2022,06:59:32,0.301,1.0,0.269,0.005
22/06/2022,07:00:33,0.307,1.0,0.274,0.005
22/06/2022,07:01:33,0.312,1.0,0.279,0.005
22/06/2022,07:02:32,0.316,1.0,0.285,0.006
22/06/2022,07:03:32,0.320,1.0,0.29,0.005
22/06/2022,07:04:32,0.325,1.0,0.295,0.005
22/06/2022,07:05:32,0.331,1.0,0.301,0.006
22/06/2022,07:06:32,0.335,1.0,0.306,0.005
22/06/2022,07:07:32,0.339,1.0,0.312,0.006
22/06/2022,07:08:42,0.345,1.0,0.319,0.007
22/06/2022,07:09:32,0.349,1.0,0.323,0.004
22/06/2022,07:10:33,0.355,1.0,0.329,0.006
22/06/2022,07:11:32,0.359,1.0,0.335,0.006
22/06/2022,07:12:32,0.364,1.0,0.341,0.006
22/06/2022,07:13:32,0.369,1.0,0.347,0.006
22/06/2022,07:14:32,0.374,1.0,0.354,0.007
22/06/2022,07:15:33,0.380,1.0,0.36,0.006
22/06/2022,07:16:33,0.386,1.0,0.366,0.006
22/06/2022,07:17:32,0.392,1.0,0.373,0.007
22/06/2022,07:18:32,0.397,1.0,0.379,0.006
22/06/2022,07:19:32,0.401,1.0,0.386,0.007
22/06/2022,07:20:32,0.407,1.0,0.393,0.007
22/06/2022,07:21:33,0.413,1.0,0.4,0.007
22/06/2022,07:22:32,0.420,1.0,0.406,0.006
22/06/2022,07:23:32,0.425,1.0,0.414,0.008
22/06/2022,07:24:33,0.430,1.0,0.421,0.007
22/06/2022,07:25:32,0.435,1.0,0.428,0.007
22/06/2022,07:26:32,0.440,1.0,0.435,0.007
22/06/2022,07:27:32,0.446,1.0,0.443,0.008
22/06/2022,07:28:32,0.451,1.0,0.45,0.007
22/06/2022,07:29:32,0.458,1.0,0.458,0.008
22/06/2022,07:30:44,0.466,1.0,0.467,0.009
22/06/2022,07:32:32,0.476,1.0,0.481,0.014
22/06/2022,07:33:32,0.480,1.0,0.489,0.008
22/06/2022,07:34:33,0.489,1.0,0.497,0.008
22/06/2022,07:35:32,0.495,1.0,0.505,0.008
22/06/2022,07:36:32,0.501,1.0,0.513,0.008
22/06/2022,07:37:32,0.507,1.0,0.522,0.009
22/06/2022,07:38:32,0.513,1.0,0.53,0.008
22/06/2022,07:39:40,0.521,1.0,0.54,0.01
22/06/2022,07:40:49,0.525,1.0,0.55,0.01
22/06/2022,07:42:33,0.538,1.0,0.565,0.015
22/06/2022,07:43:32,0.545,1.0,0.574,0.009
22/06/2022,07:44:33,0.552,1.0,0.584,0.01
22/06/2022,07:45:40,0.560,1.0,0.594,0.01
22/06/2022,07:46:32,0.567,1.0,0.602,0.008
22/06/2022,07:47:32,0.572,1.0,0.612,0.01
22/06/2022,07:48:32,0.580,1.0,0.621,0.009
22/06/2022,07:49:33,0.587,1.0,0.631,0.01
22/06/2022,07:50:33,0.593,1.0,0.641,0.01
22/06/2022,07:51:33,0.599,1.0,0.651,0.01
22/06/2022,07:52:32,0.606,1.0,0.661,0.01
22/06/2022,07:53:33,0.612,1.0,0.671,0.01
22/06/2022,07:54:32,0.620,1.0,0.681,0.01
22/06/2022,07:55:32,0.628,1.0,0.692,0.011
22/06/2022,07:56:32,0.636,1.0,0.702,0.01
22/06/2022,07:57:32,0.643,1.0,0.713,0.011
22/06/2022,07:58:33,0.652,1.0,0.724,0.011
22/06/2022,07:59:32,0.659,2.0,0.734,0.01
22/06/2022,08:00:33,0.668,2.0,0.746,0.012
22/06/2022,08:01:45,0.673,2.0,0.759,0.013
22/06/2022,08:03:33,0.686,2.0,0.779,0.02
22/06/2022,08:04:32,0.691,2.0,0.791,0.012
22/06/2022,08:05:32,0.699,2.0,0.802,0.011
22/06/2022,08:06:32,0.710,2.0,0.814,0.012
22/06/2022,08:07:33,0.717,2.0,0.826,0.012
22/06/2022,08:08:33,0.726,2.0,0.838,0.012
22/06/2022,08:09:33,0.735,2.0,0.85,0.012
22/06/2022,08:10:33,0.742,2.0,0.863,0.013
22/06/2022,08:11:32,0.750,2.0,0.875,0.012
22/06/2022,08:12:32,0.758,2.0,0.888,0.013
22/06/2022,08:13:32,0.768,2.0,0.9,0.012
22/06/2022,08:14:33,0.774,2.0,0.913,0.013
22/06/2022,08:15:32,0.782,2.0,0.926,0.013
22/06/2022,08:16:32,0.789,2.0,0.939,0.013
22/06/2022,08:17:33,0.797,2.0,0.953,0.014
22/06/2022,08:18:32,0.806,2.0,0.966,0.013
22/06/2022,08:19:33,0.817,2.0,0.979,0.013
22/06/2022,08:20:32,0.826,2.0,0.993,0.014
22/06/2022,08:21:33,0.833,2.0,1.007,0.014
22/06/2022,08:22:32,0.838,2.0,1.021,0.014
22/06/2022,08:23:32,0.846,2.0,1.035,0.014
22/06/2022,08:24:41,0.853,2.0,1.051,0.016
22/06/2022,08:25:32,0.860,2.0,1.063,0.012
22/06/2022,08:26:32,0.870,2.0,1.078,0.015
22/06/2022,08:27:32,0.882,2.0,1.092,0.014
22/06/2022,08:28:32,0.891,2.0,1.107,0.015
22/06/2022,08:29:32,0.898,2.0,1.122,0.015
22/06/2022,08:30:32,0.905,2.0,1.137,0.015
22/06/2022,08:31:32,0.915,2.0,1.152,0.015
22/06/2022,08:32:32,0.919,2.0,1.167,0.015
22/06/2022,08:33:32,0.930,2.0,1.183,0.016
22/06/2022,08:34:34,0.939,2.0,1.199,0.016
22/06/2022,08:35:33,0.946,2.0,1.214,0.015
22/06/2022,08:36:40,0.956,2.0,1.232,0.018
22/06/2022,08:37:32,0.962,2.0,1.246,0.014
22/06/2022,08:38:33,0.971,2.0,1.262,0.016
22/06/2022,08:39:41,0.982,2.0,1.28,0.018
22/06/2022,08:40:32,0.987,2.0,1.295,0.015
22/06/2022,08:41:32,0.997,2.0,1.311,0.016
22/06/2022,08:42:32,1.004,2.0,1.328,0.017
22/06/2022,08:43:32,1.011,2.0,1.345,0.017
22/06/2022,08:44:33,1.019,2.0,1.362,0.017
22/06/2022,08:45:40,1.027,2.0,1.381,0.019
22/06/2022,08:46:33,1.036,2.0,1.396,0.015
22/06/2022,08:47:32,1.048,2.0,1.413,0.017
22/06/2022,08:48:32,1.055,2.0,1.431,0.018
22/06/2022,08:49:33,1.064,2.0,1.448,0.017
22/06/2022,08:50:32,1.075,2.0,1.466,0.018
22/06/2022,08:51:32,1.083,2.0,1.484,0.018
22/06/2022,08:52:32,1.091,3.0,1.502,0.018
22/06/2022,08:53:33,1.101,3.0,1.521,0.019
22/06/2022,08:54:32,1.105,3.0,1.539,0.018
22/06/2022,08:55:32,1.113,3.0,1.558,0.019
22/06/2022,08:56:33,1.123,3.0,1.576,0.018
22/06/2022,08:57:32,1.132,3.0,1.595,0.019
22/06/2022,08:58:33,1.141,3.0,1.614,0.019
22/06/2022,08:59:33,1.146,3.0,1.633,0.019
22/06/2022,09:00:32,1.157,3.0,1.652,0.019
22/06/2022,09:01:45,1.166,3.0,1.675,0.023
22/06/2022,09:03:33,1.187,3.0,1.711,0.036
22/06/2022,09:04:32,1.198,3.0,1.731,0.02
22/06/2022,09:05:33,1.204,3.0,1.751,0.02
22/06/2022,09:06:32,1.213,3.0,1.771,0.02
22/06/2022,09:07:33,1.221,3.0,1.791,0.02
22/06/2022,09:08:41,1.234,3.0,1.815,0.024
22/06/2022,09:09:32,1.241,3.0,1.832,0.017
22/06/2022,09:10:32,1.252,3.0,1.853,0.021
22/06/2022,09:11:33,1.262,3.0,1.874,0.021
22/06/2022,09:12:32,1.268,3.0,1.895,0.021
22/06/2022,09:13:33,1.281,3.0,1.916,0.021
22/06/2022,09:14:40,1.291,3.0,1.94,0.024
22/06/2022,09:15:33,1.297,3.0,1.959,0.019
22/06/2022,09:16:33,1.300,3.0,1.981,0.022
22/06/2022,09:17:32,1.308,3.0,2.003,0.022
22/06/2022,09:18:33,1.319,3.0,2.024,0.021
22/06/2022,09:19:33,1.330,3.0,2.046,0.022
22/06/2022,09:20:33,1.337,3.0,2.069,0.023
22/06/2022,09:21:33,1.343,3.0,2.091,0.022
22/06/2022,09:22:33,1.354,3.0,2.113,0.022
22/06/2022,09:23:42,1.364,3.0,2.14,0.027
22/06/2022,09:24:32,1.374,3.0,2.159,0.019
22/06/2022,09:25:32,1.385,3.0,2.182,0.023
22/06/2022,09:26:32,1.390,3.0,2.205,0.023
22/06/2022,09:27:32,1.398,3.0,2.228,0.023
22/06/2022,09:28:32,1.408,3.0,2.252,0.024
22/06/2022,09:29:32,1.415,3.0,2.275,0.023
22/06/2022,09:30:50,1.416,3.0,2.306,0.031
22/06/2022,09:32:41,1.441,3.0,2.35,0.044
22/06/2022,09:33:33,1.449,3.0,2.371,0.021
22/06/2022,09:34:32,1.459,3.0,2.395,0.024
22/06/2022,09:35:41,1.469,3.0,2.423,0.028
22/06/2022,09:36:32,1.478,3.0,2.444,0.021
22/06/2022,09:37:41,1.489,3.0,2.472,0.028
22/06/2022,09:38:32,1.495,3.0,2.493,0.021
22/06/2022,09:39:32,1.504,3.0,2.518,0.025
22/06/2022,09:40:32,1.517,3.0,2.544,0.026
22/06/2022,09:41:33,1.527,4.0,2.569,0.025
22/06/2022,09:42:33,1.539,4.0,2.595,0.026
22/06/2022,09:43:32,1.546,4.0,2.62,0.025
22/06/2022,09:44:33,1.553,4.0,2.646,0.026
22/06/2022,09:45:32,1.561,4.0,2.672,0.026
22/06/2022,09:46:35,1.572,4.0,2.699,0.027
22/06/2022,09:47:32,1.581,4.0,2.724,0.025
22/06/2022,09:48:32,1.588,4.0,2.751,0.027
22/06/2022,09:49:32,1.602,4.0,2.777,0.026
22/06/2022,09:50:33,1.611,4.0,2.804,0.027
22/06/2022,09:51:32,1.620,4.0,2.831,0.027
22/06/2022,09:52:34,1.627,4.0,2.859,0.028
22/06/2022,09:53:32,1.631,4.0,2.885,0.026
22/06/2022,09:54:33,1.637,4.0,2.912,0.027
22/06/2022,09:55:41,1.643,4.0,2.943,0.031
22/06/2022,09:56:33,1.652,4.0,2.967,0.024
22/06/2022,09:57:33,1.662,4.0,2.996,0.029
22/06/2022,09:58:33,1.668,4.0,3.023,0.027
22/06/2022,09:59:33,1.670,4.0,3.05,0.027
22/06/2022,10:00:33,1.676,4.0,3.078,0.028
22/06/2022,10:01:33,1.684,4.0,3.106,0.028
22/06/2022,10:02:33,1.700,4.0,3.135,0.029
22/06/2022,10:03:33,1.713,4.0,3.163,0.028
22/06/2022,10:04:33,1.719,4.0,3.192,0.029
22/06/2022,10:05:32,1.728,4.0,3.22,0.028
22/06/2022,10:06:33,1.734,4.0,3.249,0.029
22/06/2022,10:07:32,1.742,4.0,3.278,0.029
22/06/2022,10:08:32,1.744,4.0,3.307,0.029
22/06/2022,10:09:33,1.753,4.0,3.336,0.029
22/06/2022,10:10:32,1.769,4.0,3.366,0.03
22/06/2022,10:11:33,1.782,4.0,3.395,0.029
22/06/2022,10:12:32,1.771,4.0,3.425,0.03
22/06/2022,10:13:40,1.794,4.0,3.459,0.034